Home > Weather > Vevay > Past weeks

Flag for USA Past Weather in Vevay, Indiana, USA — Yesterday and Last 2 Weeks

Now
75 °F

Clear.


Feels Like: 74 °F
Forecast: 68 / 86 °F
Wind: 6 mph from Southwest

Location: Cincinnati / Northern Kentucky International Airport

Current Time: Jul 30, 2016 at 11:51:06 PM

Latest Report: Jul 30, 2016 at 10:52 PM


Visibility: 10 mi

Pressure: 29.96 "Hg

Humidity: 88%

Dew Point: 71 °F

Location of VevayLocation

Past Weather in Vevay — Graph

°F

Vevay Temperature Yesterday

Maximum temperature yesterday: 86 °F (at 2:52 PM)
Minimum temperature yesterday: 71 °F (at 4:52 AM)
Average temperature yesterday: 77 °F

High & Low Weather Summary for the Past Weeks

 TemperatureHumidityPressure
High93 °F (Jul 23, 4:52 PM)100% (Jul 19, 12:52 AM)30.25 "Hg (Jul 19, 12:52 AM)
Low66 °F (Jul 17, 2:52 AM)45% (Jul 20, 5:52 PM)29.84 "Hg (Jul 28, 4:52 PM)
Average79 °F78%30.02 "Hg
* Reported Jul 15 9:52 PM — Jul 30 9:52 PM, Vevay, Weather by CustomWeather, © 2016

Note: Actual official high and low records may vary slightly from our data, if they occured in-between our weather recording intervals... More about our weather records

Advertising

Vevay Weather History for the Previous 24 Hours

Scroll right to see more
 ConditionsComfort  
Time TempWeatherWind HumidityBarometerVisibility
9:52 PM
Sat, Jul 30
77 °FPassing clouds.3 mph82%29.93 "Hg10 mi
8:52 PM77 °FScattered clouds.3 mph79%29.92 "Hg10 mi
7:52 PM80 °FBroken clouds.3 mph69%29.93 "Hg10 mi
6:52 PM82 °FBroken clouds.5 mph70%29.92 "Hg10 mi
5:52 PM82 °FPartly sunny.7 mph65%29.92 "Hg10 mi
4:52 PM83 °FBroken clouds.8 mph61%29.92 "Hg10 mi
3:52 PM86 °FBroken clouds.6 mph55%29.92 "Hg10 mi
2:52 PM85 °FBroken clouds.5 mph57%29.93 "Hg10 mi
1:52 PM84 °FBroken clouds.8 mph61%29.95 "Hg10 mi
12:52 PM83 °FBroken clouds.9 mph65%29.96 "Hg10 mi
11:52 AM80 °FBroken clouds.3 mph74%29.96 "Hg10 mi
10:52 AM76 °FMostly cloudy.3 mph85%29.96 "Hg8 mi
9:52 AM73 °FFog.6 mph97%29.96 "Hg2 mi
9:04 AM72 °FFog.3 mph100%29.98 "Hg1 mi
8:52 AM72 °FFog.3 mph97%29.94 "Hg1 mi
7:52 AM70 °FFog.5 mph100%29.93 "Hg0 mi
6:52 AM70 °FFog.5 mph100%29.91 "Hg1 mi
5:52 AM71 °FFog.5 mph96%29.89 "Hg4 mi
4:52 AM71 °FFog.3 mph96%29.88 "Hg5 mi
3:52 AM70 °FFog.3 mph100%29.88 "Hg6 mi
2:52 AM70 °FFog.3 mph97%29.88 "Hg6 mi
1:52 AM70 °FMostly cloudy.No wind97%29.90 "Hg9 mi
12:52 AM70 °FOvercast.7 mph100%29.90 "Hg10 mi
11:52 PM
Fri, Jul 29
71 °FMostly cloudy.No wind96%29.91 "Hg10 mi
Weather by CustomWeather, © 2016

See weather overviewHow to use our weather pages